Track COSMOS 1417 now! 10-day predictions COSMOS 1417 is classified as:
1 13617U 82102A 22147.88318409 .00000058 00000-0 44602-4 0 9991 2 13617 82.9677 273.3735 0033235 242.7960 232.2209 13.75403834987591